Volver al catálogo

STARLINK-36980

ActivoComunicacionesSSO
NORAD 68146·PAYLOAD·🇺🇸 United States

Lanzado Mar 13, 2026 desde Vandenberg Space Force Base

Loading…

Próximos Pases (próximas 24 horas)

TLE

ActualizadoSource: CelesTrak SupGP

Época: Sep 14, 2026, 21:04 UTC

1 68146C 26049E   26257.87826389  .00024062  00000+0  74706-3 0  2576
2 68146  97.2839 277.9809 0001535  89.7675 271.8599 15.33421155    15

Sigue STARLINK-36980 en tiempo real con AllMySat

Download on the App Store